Weather in Borovoy

Russia / Republic of Karelia     64°36′45″N   32°14′10″E
temp.,
°C
wind,
m/s
gust,
m/s
humid.,
%
clouds,
%
prec.,
mm/h
press.,
hPa
HPBL,
m
21 june, mon
mon2100:00+18nw259571 0.3 1012102
03:00+16nnw239899 0.3 101382
06:00+17ne1189100 0.0 1014161
09:00+22ese237351 0.0 1014609
12:00+29ssw474211 0.0 10122234
15:00+28ssw484127 0.0 10121246
18:00+31sw69340 0.0 10102781
21:00+23wsw375589 0.1 1012138
22 june, tue
tue2200:00+22ssw4146945 0.0 1011489
03:00+20sw41280100 0.0 1012342
06:00+21sw31076100 0.0 1013442
09:00+26wsw475478 0.0 10131140
12:00+30sw584161 0.0 10132080
15:00+32sw583315 0.0 10132746
18:00+32sw493226 0.0 10112748
21:00+28ssw410455 0.0 1011558
23 june, wed
wed2300:00+21s3108260 1.0 1012196
03:00+19s278332 1.0 1011119
06:00+22ssw2107484 0.0 1011323
09:00+26sw485589 0.2 1011844
12:00+30sw584469 0.0 10112293
15:00+29w684397 0.0 10112249
18:00+27w464966 0.0 10111037
21:00+24nw366898 0.2 1012241
24 june, thu
thu2400:00+19wnw259459 3.9 1013136
03:00+17nw4796100 4.0 1013361
06:00+15nw4689100 0.0 1015468
09:00+16nw457192 0.0 1016785
12:00+19nnw455259 0.0 10161135
15:00+18nnw4449100 0.0 10161191
18:00+19nne34470 0.0 10171347
21:00+16nne47570 0.0 1017540
25 june, fri
fri2500:00+11ene25820 0.0 1020111
03:00+9ese22950 0.0 102125
06:00+12e12755 0.0 1021284
09:00+16e22535 0.0 1022813
12:00+19e22413 0.0 10211221
15:00+21e22365 0.0 10202003
18:00+22ese22355 0.0 10191783
21:00+18se38513 0.0 1018274